Weather History for Flagstaff, AZ

Change the Weather History Date:

Sunday, May 11, 2014

  Actual Average Record
Temperature  
Mean Temperature 44 °F 50 °F  
Max Temperature 52 °F 66 °F 86 °F (1996)
Min Temperature 36 °F 34 °F 16 °F (1933)
Degree Days  
Heating Degree Days 21 15  
Month to date heating degree days 178 176  
Since 1 July heating degree days 6179 6532  
Cooling Degree Days 0 0  
Month to date cooling degree days 0 0  
Year to date cooling degree days 0 0  
Moisture  
Dew Point 21 °F    
Average Humidity 38    
Maximum Humidity 54    
Minimum Humidity 21    
Precipitation  
Precipitation T in 0.01 in 0.81 in (1980)
Month to date precipitation 0.05 0.23  
Year to date precipitation 3.14 7.71  
Snow  
Snow T in 0.00 in 0.30 in (1957)
Month to date snowfall 0.4 0.5  
Since 1 July snowfall 44.4 101.5  
Snow Depth 0.00 in    
Sea Level Pressure  
Sea Level Pressure 29.68 in    
Wind  
Wind Speed 12 mph (West)    
Max Wind Speed 31 mph    
Max Gust Speed 41 mph    
Visibility 10 miles    
Events      
T = Trace of Precipitation, MM = Missing Value Source: NWS Daily Summary

Daily Weather History Graph

Daily Weather History Graph

Search for Another Location

Airport:

Trip Planner

Search our weather history database for the weather conditions in past years. The results will help you decide how hot, cold, wet, or windy it might be!

Date:

Astronomy

May. 11, 2014 Rise Set
Actual Time 5:25 AM MST 7:20 PM MST
Civil Twilight 4:58 AM MST 7:48 PM MST
Nautical Twilight 4:24 AM MST 8:22 PM MST
Astronomical Twilight 3:48 AM MST 8:58 PM MST
Moon 4:26 PM MST (5/11) 3:25 AM MST (5/11)
Length of Visible Light 14h 50m
Length of Day
13h 54m
Waxing Gibbous, 90% of the Moon is Illuminated
May 11
Waxing Gibbous
May 14
Full
May 21
Last Quarter
May 28
New
Jun 5
First Quarter

Hourly Weather History & Observations

Time (MST) Temp. Windchill Dew Point Humidity Pressure Visibility Wind Dir Wind Speed Gust Speed Precip Events Conditions
12:57 AM 52.0 °F - 30.0 °F 43% 29.47 in 10.0 mi SSW 19.6 mph 32.2 mph N/A   Overcast
1:57 AM 50.0 °F - 30.0 °F 46% 29.47 in 10.0 mi WSW 17.3 mph 26.5 mph N/A   Scattered Clouds
2:57 AM 48.0 °F - 17.1 °F 29% 29.46 in 10.0 mi WSW 18.4 mph 29.9 mph N/A   Clear
3:57 AM 46.0 °F 40.6 °F 8.1 °F 21% 29.47 in 10.0 mi West 11.5 mph 23.0 mph N/A   Scattered Clouds
4:57 AM 43.0 °F 36.4 °F 17.1 °F 35% 29.50 in 7.0 mi WSW 12.7 mph - N/A   Overcast
5:57 AM 39.9 °F 32.5 °F 24.1 °F 53% 29.51 in 7.0 mi SW 12.7 mph - N/A   Partly Cloudy
6:57 AM 41.0 °F 32.5 °F 24.1 °F 51% 29.53 in 9.0 mi SW 17.3 mph 23.0 mph N/A   Clear
7:57 AM 42.1 °F 35.2 °F 21.0 °F 43% 29.55 in 10.0 mi WSW 12.7 mph 27.6 mph N/A   Partly Cloudy
8:57 AM 39.9 °F 31.8 °F 19.0 °F 43% 29.58 in 10.0 mi West 15.0 mph 27.6 mph N/A   Mostly Cloudy
9:57 AM 39.0 °F 29.6 °F 23.0 °F 53% 29.62 in 10.0 mi WSW 18.4 mph 29.9 mph N/A   Mostly Cloudy
10:57 AM 42.1 °F 34.9 °F 19.0 °F 40% 29.64 in 10.0 mi WSW 13.8 mph 24.2 mph N/A   Mostly Cloudy
11:57 AM 42.1 °F 35.7 °F 23.0 °F 47% 29.66 in 10.0 mi WNW 11.5 mph 26.5 mph 0.00 in   Mostly Cloudy
12:57 PM 45.0 °F 38.2 °F 23.0 °F 42% 29.65 in 10.0 mi WSW 15.0 mph 27.6 mph N/A   Mostly Cloudy
1:57 PM 46.0 °F 41.0 °F 21.9 °F 39% 29.68 in 10.0 mi WNW 10.4 mph 20.7 mph N/A   Mostly Cloudy
2:57 PM 46.9 °F - 21.0 °F 36% 29.69 in 10.0 mi WNW 17.3 mph 34.5 mph N/A   Clear
3:57 PM 48.0 °F - 19.9 °F 33% 29.71 in 10.0 mi West 13.8 mph 24.2 mph N/A   Mostly Cloudy
4:57 PM 45.0 °F 39.3 °F 19.0 °F 36% 29.77 in 10.0 mi NW 11.5 mph 25.3 mph N/A   Mostly Cloudy
5:57 PM 46.0 °F 41.0 °F 21.0 °F 37% 29.80 in 10.0 mi West 10.4 mph 24.2 mph N/A   Overcast
6:57 PM 43.0 °F 39.5 °F 21.9 °F 43% 29.83 in 10.0 mi Variable 5.8 mph - N/A   Scattered Clouds
7:57 PM 39.9 °F 35.8 °F 21.9 °F 49% 29.87 in 10.0 mi WNW 5.8 mph - N/A   Clear
8:57 PM 39.0 °F 34.8 °F 23.0 °F 53% 29.91 in 10.0 mi Variable 5.8 mph - N/A   Clear
9:57 PM 37.9 °F 34.4 °F 23.0 °F 55% 29.95 in 10.0 mi Variable 4.6 mph - N/A   Clear
10:57 PM 37.0 °F 31.0 °F 21.0 °F 52% 29.96 in 10.0 mi WNW 8.1 mph - N/A   Clear
11:57 PM 36.0 °F - 19.9 °F 52% 29.99 in 10.0 mi Calm Calm - N/A   Clear